BTK6413 WADD-WARR

Flight info

Callsign BTK6413
Flight time 0h 45m
Altitude 26000
Route OKANG1B/09 OKANG OKANG1E/10
Aircraft A320/M-SDE3FGHIRWY/LB1

Departure

Time 2026-05-07 15:50
Airport Denpasar I Gusti Ngurah Rai International Airport (WADD)

Arrival

Time 2026-05-07 16:35
Airport Juanda International Airport (WARR)
Time Latitude Longitude Altitude Speed Heading
2026-05-07 15:27 -8.74563 115.16340 33 ft 0 kts 358°
2026-05-07 15:35 -8.74564 115.16340 33 ft 0 kts 358°
2026-05-07 15:40 -8.74566 115.16340 33 ft 3 kts 358°
2026-05-07 15:41 -8.74592 115.16341 33 ft 3 kts 358°
2026-05-07 15:41 -8.74613 115.16342 30 ft 4 kts 358°
2026-05-07 15:41 -8.74639 115.16343 31 ft 4 kts 358°
2026-05-07 15:41 -8.74663 115.16344 32 ft 4 kts 353°
2026-05-07 15:42 -8.74686 115.16352 32 ft 4 kts 307°
2026-05-07 15:42 -8.74694 115.16375 29 ft 4 kts 268°
2026-05-07 15:42 -8.74693 115.16391 31 ft 0 kts 268°
2026-05-07 15:45 -8.74694 115.16379 29 ft 4 kts 268°
2026-05-07 15:45 -8.74694 115.16371 29 ft 5 kts 268°
2026-05-07 15:46 -8.74699 115.16232 33 ft 13 kts 268°
2026-05-07 15:46 -8.74703 115.16134 33 ft 15 kts 267°
2026-05-07 15:46 -8.74709 115.16023 33 ft 17 kts 267°
2026-05-07 15:47 -8.74714 115.15898 33 ft 19 kts 268°
2026-05-07 15:47 -8.74719 115.15758 32 ft 19 kts 268°
2026-05-07 15:47 -8.74724 115.15629 32 ft 19 kts 268°
2026-05-07 15:47 -8.74730 115.15486 32 ft 21 kts 267°
2026-05-07 15:48 -8.74786 115.15392 31 ft 15 kts 182°
2026-05-07 15:48 -8.74874 115.15395 28 ft 14 kts 177°
2026-05-07 15:48 -8.74894 115.15438 29 ft 7 kts 94°
2026-05-07 15:48 -8.74895 115.15482 29 ft 0 kts 87°
2026-05-07 15:49 -8.74894 115.15493 29 ft 3 kts 87°
2026-05-07 15:49 -8.74893 115.15527 29 ft 10 kts 88°
2026-05-07 15:49 -8.74883 115.15854 28 ft 81 kts 88°
2026-05-07 15:49 -8.74850 115.16618 28 ft 134 kts 88°
2026-05-07 15:50 -8.74803 115.17688 230 ft 158 kts 88°
2026-05-07 15:50 -8.74755 115.18782 882 ft 156 kts 90°
2026-05-07 15:50 -8.74713 115.19891 1487 ft 163 kts 89°
2026-05-07 15:50 -8.74682 115.20682 1672 ft 177 kts 89°
2026-05-07 15:51 -8.74632 115.22007 1926 ft 201 kts 89°
2026-05-07 15:51 -8.74263 115.23976 2402 ft 234 kts 62°
2026-05-07 15:51 -8.73529 115.24821 2687 ft 253 kts 38°
2026-05-07 15:51 -8.71809 115.25374 3373 ft 272 kts
2026-05-07 15:52 -8.69967 115.24862 4242 ft 281 kts 335°
2026-05-07 15:52 -8.68305 115.23804 5115 ft 285 kts 324°
2026-05-07 15:52 -8.66741 115.22542 5956 ft 289 kts 321°
2026-05-07 15:52 -8.65198 115.21218 6750 ft 293 kts 320°
2026-05-07 15:53 -8.63629 115.19892 7554 ft 295 kts 321°
2026-05-07 15:53 -8.62026 115.18587 8379 ft 296 kts 322°
2026-05-07 15:53 -8.60392 115.17302 9180 ft 299 kts 323°
2026-05-07 15:53 -8.58732 115.16032 9953 ft 300 kts 324°
2026-05-07 15:54 -8.57025 115.14746 10358 ft 316 kts 324°
2026-05-07 15:54 -8.55189 115.13376 10499 ft 339 kts 324°
2026-05-07 15:54 -8.53246 115.11931 10816 ft 353 kts 324°
2026-05-07 15:54 -8.51255 115.10448 11360 ft 358 kts 324°
2026-05-07 15:55 -8.49246 115.08945 11957 ft 361 kts 323°
2026-05-07 15:55 -8.47214 115.07423 12551 ft 365 kts 323°
2026-05-07 15:55 -8.45167 115.05890 13140 ft 369 kts 323°
2026-05-07 15:55 -8.43095 115.04340 13728 ft 372 kts 323°
2026-05-07 15:56 -8.41006 115.02776 14245 ft 375 kts 323°
2026-05-07 15:56 -8.38931 115.01223 14756 ft 378 kts 323°
2026-05-07 15:56 -8.36780 114.99617 15278 ft 381 kts 323°
2026-05-07 15:56 -8.34671 114.98042 15794 ft 383 kts 323°
2026-05-07 15:57 -8.32521 114.96435 16298 ft 386 kts 322°
2026-05-07 15:57 -8.31060 114.95342 16640 ft 388 kts 322°
2026-05-07 15:57 -8.30670 114.95050 16729 ft 388 kts 322°
2026-05-07 15:57 -8.28516 114.93252 17222 ft 391 kts 320°
2026-05-07 15:58 -8.26366 114.91569 17749 ft 394 kts 322°
2026-05-07 15:58 -8.24127 114.89938 18235 ft 397 kts 324°
2026-05-07 15:58 -8.21858 114.88332 18676 ft 400 kts 324°
2026-05-07 15:58 -8.19580 114.86714 19136 ft 402 kts 323°
2026-05-07 15:59 -8.17299 114.85065 19605 ft 404 kts 323°
2026-05-07 15:59 -8.15020 114.83387 20083 ft 406 kts 322°
2026-05-07 15:59 -8.12741 114.81686 20562 ft 409 kts 322°
2026-05-07 15:59 -8.10453 114.79968 21040 ft 411 kts 322°
2026-05-07 16:00 -8.08153 114.78238 21507 ft 414 kts 322°
2026-05-07 16:00 -8.05837 114.76499 21971 ft 416 kts 322°
2026-05-07 16:00 -8.03508 114.74757 22415 ft 418 kts 322°
2026-05-07 16:00 -8.01163 114.73006 22843 ft 421 kts 322°
2026-05-07 16:01 -7.98804 114.71248 23265 ft 423 kts 322°
2026-05-07 16:01 -7.96433 114.69480 23649 ft 425 kts 322°
2026-05-07 16:01 -7.94076 114.67670 23985 ft 426 kts 318°
2026-05-07 16:01 -7.91989 114.65545 24308 ft 427 kts 309°
2026-05-07 16:02 -7.90273 114.63097 24633 ft 428 kts 299°
2026-05-07 16:02 -7.89017 114.60376 24948 ft 429 kts 288°
2026-05-07 16:02 -7.88198 114.57474 25259 ft 431 kts 284°
2026-05-07 16:02 -7.87431 114.54545 25588 ft 433 kts 284°
2026-05-07 16:03 -7.86662 114.51603 25837 ft 435 kts 284°
2026-05-07 16:03 -7.85888 114.48650 25912 ft 436 kts 284°
2026-05-07 16:03 -7.85114 114.45694 25918 ft 436 kts 284°
2026-05-07 16:03 -7.84338 114.42739 25918 ft 436 kts 284°
2026-05-07 16:04 -7.83556 114.39782 25920 ft 437 kts 284°
2026-05-07 16:04 -7.82771 114.36824 25919 ft 437 kts 284°
2026-05-07 16:04 -7.81988 114.33865 25928 ft 437 kts 284°
2026-05-07 16:04 -7.81206 114.30903 25921 ft 437 kts 284°
2026-05-07 16:05 -7.80424 114.27942 25920 ft 437 kts 284°
2026-05-07 16:05 -7.79643 114.24979 25926 ft 437 kts 284°
2026-05-07 16:05 -7.78873 114.22051 25922 ft 438 kts 284°
2026-05-07 16:05 -7.78092 114.19086 25923 ft 438 kts 284°
2026-05-07 16:06 -7.77307 114.16119 25920 ft 438 kts 284°
2026-05-07 16:06 -7.76513 114.13114 25917 ft 438 kts 284°
2026-05-07 16:06 -7.75732 114.10143 25913 ft 438 kts 283°
2026-05-07 16:06 -7.75228 114.07116 25913 ft 438 kts 274°
2026-05-07 16:07 -7.75081 114.04090 25926 ft 438 kts 272°
2026-05-07 16:07 -7.74949 114.01022 25914 ft 438 kts 272°
2026-05-07 16:07 -7.74816 113.97954 25912 ft 438 kts 272°
2026-05-07 16:07 -7.74680 113.94886 25910 ft 438 kts 272°
2026-05-07 16:08 -7.74542 113.91816 25913 ft 438 kts 272°
2026-05-07 16:08 -7.74403 113.88745 25909 ft 439 kts 272°
2026-05-07 16:08 -7.74266 113.85674 25908 ft 439 kts 272°
2026-05-07 16:08 -7.74128 113.82599 25910 ft 439 kts 272°
2026-05-07 16:09 -7.73993 113.79519 25909 ft 439 kts 272°
2026-05-07 16:09 -7.73861 113.76441 25909 ft 440 kts 272°
2026-05-07 16:09 -7.73725 113.73365 25907 ft 440 kts 272°
2026-05-07 16:09 -7.73585 113.70281 25914 ft 440 kts 272°
2026-05-07 16:10 -7.73444 113.67203 25911 ft 440 kts 272°
2026-05-07 16:10 -7.73305 113.64122 25912 ft 440 kts 272°
2026-05-07 16:10 -7.73169 113.61053 25775 ft 435 kts 272°
2026-05-07 16:10 -7.73032 113.58026 25542 ft 430 kts 272°
2026-05-07 16:11 -7.72871 113.55036 25184 ft 425 kts 276°
2026-05-07 16:11 -7.72337 113.52116 24620 ft 423 kts 284°
2026-05-07 16:11 -7.71591 113.49248 24060 ft 422 kts 284°
2026-05-07 16:11 -7.70854 113.46385 23514 ft 421 kts 284°
2026-05-07 16:12 -7.70127 113.43531 22902 ft 419 kts 284°
2026-05-07 16:12 -7.69407 113.40702 22408 ft 415 kts 284°
2026-05-07 16:12 -7.68691 113.37892 21892 ft 412 kts 284°
2026-05-07 16:12 -7.67978 113.35101 21397 ft 410 kts 284°
2026-05-07 16:13 -7.67266 113.32327 20906 ft 408 kts 284°
2026-05-07 16:13 -7.66559 113.29566 20399 ft 406 kts 284°
2026-05-07 16:13 -7.65853 113.26810 19894 ft 405 kts 283°
2026-05-07 16:13 -7.65165 113.24060 19365 ft 404 kts 282°
2026-05-07 16:14 -7.64561 113.21301 18840 ft 403 kts 280°
2026-05-07 16:14 -7.64022 113.18529 18285 ft 403 kts 279°
2026-05-07 16:14 -7.63517 113.15758 17689 ft 402 kts 279°
2026-05-07 16:14 -7.63019 113.12992 17122 ft 399 kts 279°
2026-05-07 16:15 -7.62514 113.10250 16564 ft 397 kts 279°
2026-05-07 16:15 -7.61998 113.07527 16001 ft 394 kts 280°
2026-05-07 16:15 -7.61474 113.04825 15442 ft 392 kts 281°
2026-05-07 16:15 -7.60956 113.02173 14882 ft 389 kts 281°
2026-05-07 16:16 -7.60429 112.99503 14328 ft 387 kts 281°
2026-05-07 16:16 -7.59905 112.96850 13789 ft 385 kts 281°
2026-05-07 16:16 -7.59390 112.94250 13621 ft 371 kts 281°
2026-05-07 16:16 -7.58897 112.91752 13497 ft 356 kts 281°
2026-05-07 16:17 -7.58424 112.89346 13364 ft 344 kts 281°
2026-05-07 16:17 -7.57969 112.87026 13234 ft 332 kts 281°
2026-05-07 16:17 -7.57527 112.84781 13110 ft 322 kts 281°
2026-05-07 16:17 -7.57102 112.82602 12975 ft 312 kts 281°
2026-05-07 16:18 -7.56689 112.80486 12884 ft 302 kts 281°
2026-05-07 16:18 -7.56292 112.78443 12894 ft 295 kts 281°
2026-05-07 16:18 -7.55898 112.76421 12899 ft 294 kts 281°
2026-05-07 16:18 -7.55506 112.74400 12898 ft 293 kts 281°
2026-05-07 16:19 -7.55116 112.72400 12897 ft 293 kts 281°
2026-05-07 16:19 -7.54723 112.70381 12894 ft 294 kts 281°
2026-05-07 16:19 -7.54333 112.68365 12897 ft 293 kts 281°
2026-05-07 16:19 -7.53942 112.66346 12739 ft 293 kts 281°
2026-05-07 16:20 -7.53549 112.64341 12490 ft 291 kts 281°
2026-05-07 16:20 -7.53155 112.62347 12233 ft 290 kts 281°
2026-05-07 16:20 -7.52761 112.60360 11988 ft 289 kts 281°
2026-05-07 16:20 -7.52370 112.58380 11737 ft 288 kts 281°
2026-05-07 16:21 -7.51981 112.56406 11485 ft 287 kts 281°
2026-05-07 16:21 -7.51592 112.54438 11232 ft 286 kts 281°
2026-05-07 16:21 -7.51205 112.52473 10987 ft 286 kts 281°
2026-05-07 16:21 -7.50820 112.50512 10736 ft 285 kts 281°
2026-05-07 16:22 -7.50437 112.48556 10475 ft 284 kts 281°
2026-05-07 16:22 -7.50053 112.46608 10217 ft 283 kts 282°
2026-05-07 16:22 -7.49671 112.44665 9959 ft 282 kts 282°
2026-05-07 16:22 -7.49294 112.42751 9700 ft 282 kts 282°
2026-05-07 16:23 -7.48908 112.40791 9426 ft 281 kts 282°
2026-05-07 16:23 -7.48536 112.38891 9174 ft 280 kts 281°
2026-05-07 16:23 -7.48156 112.36946 8914 ft 279 kts 282°
2026-05-07 16:23 -7.47786 112.35063 8666 ft 277 kts 282°
2026-05-07 16:24 -7.47395 112.33167 8417 ft 276 kts 287°
2026-05-07 16:24 -7.46489 112.31507 8161 ft 271 kts 316°
2026-05-07 16:24 -7.44924 112.30516 7909 ft 266 kts 346°
2026-05-07 16:24 -7.43115 112.30393 7661 ft 261 kts 11°
2026-05-07 16:25 -7.41319 112.30691 7406 ft 262 kts 12°
2026-05-07 16:25 -7.39523 112.30992 7150 ft 261 kts 11°
2026-05-07 16:25 -7.37731 112.31289 6897 ft 260 kts 11°
2026-05-07 16:25 -7.35948 112.31583 6655 ft 259 kts 11°
2026-05-07 16:26 -7.34171 112.31875 6390 ft 259 kts 11°
2026-05-07 16:26 -7.32420 112.32247 6131 ft 255 kts 25°
2026-05-07 16:26 -7.31022 112.33270 5876 ft 249 kts 54°
2026-05-07 16:26 -7.30469 112.34267 5734 ft 246 kts 73°
2026-05-07 16:27 -7.30437 112.36530 5439 ft 245 kts 102°
2026-05-07 16:27 -7.30781 112.38213 5201 ft 245 kts 102°
2026-05-07 16:27 -7.31128 112.39896 4997 ft 246 kts 103°
2026-05-07 16:27 -7.31761 112.41564 4763 ft 260 kts 114°
2026-05-07 16:28 -7.32261 112.43286 4607 ft 253 kts 101°
2026-05-07 16:28 -7.32528 112.45018 4364 ft 250 kts 99°
2026-05-07 16:28 -7.32790 112.46749 4138 ft 248 kts 99°
2026-05-07 16:28 -7.33062 112.48435 3993 ft 240 kts 99°
2026-05-07 16:29 -7.33327 112.50057 3881 ft 230 kts 99°
2026-05-07 16:29 -7.33581 112.51611 3773 ft 220 kts 99°
2026-05-07 16:29 -7.33822 112.53092 3673 ft 209 kts 99°
2026-05-07 16:29 -7.34052 112.54502 3565 ft 201 kts 99°
2026-05-07 16:30 -7.34276 112.55879 3392 ft 198 kts 99°
2026-05-07 16:30 -7.34496 112.57229 3234 ft 198 kts 99°
2026-05-07 16:30 -7.34722 112.58614 3057 ft 198 kts 99°
2026-05-07 16:30 -7.34944 112.59980 2890 ft 198 kts 99°
2026-05-07 16:31 -7.35163 112.61324 2729 ft 196 kts 99°
2026-05-07 16:31 -7.35387 112.62699 2567 ft 196 kts 99°
2026-05-07 16:31 -7.35607 112.64053 2473 ft 196 kts 99°
2026-05-07 16:31 -7.35817 112.65345 2294 ft 183 kts 99°
2026-05-07 16:32 -7.36016 112.66570 2061 ft 172 kts 99°
2026-05-07 16:32 -7.36202 112.67717 1838 ft 159 kts 99°
2026-05-07 16:32 -7.36376 112.68782 1652 ft 150 kts 99°
2026-05-07 16:32 -7.36542 112.69806 1462 ft 146 kts 99°
2026-05-07 16:33 -7.36706 112.70814 1281 ft 145 kts 99°
2026-05-07 16:33 -7.36869 112.71816 1092 ft 145 kts 99°
2026-05-07 16:33 -7.37031 112.72817 916 ft 145 kts 99°
2026-05-07 16:33 -7.37141 112.73494 793 ft 144 kts 100°
2026-05-07 16:34 -7.37323 112.74622 581 ft 142 kts 99°
2026-05-07 16:34 -7.37483 112.75602 411 ft 142 kts 98°
2026-05-07 16:34 -7.37642 112.76577 218 ft 141 kts 99°
2026-05-07 16:35 -7.37799 112.77552 34 ft 141 kts 98°
2026-05-07 16:35 -7.37944 112.78450 10 ft 113 kts 98°
2026-05-07 16:35 -7.38040 112.79060 12 ft 63 kts 99°
2026-05-07 16:35 -7.38094 112.79379 10 ft 29 kts 99°
2026-05-07 16:36 -7.38106 112.79582 10 ft 29 kts 76°
2026-05-07 16:36 -7.38067 112.79691 9 ft 13 kts 69°
2026-05-07 16:36 -7.38014 112.79769 9 ft 15 kts 24°
2026-05-07 16:36 -7.37902 112.79790 10 ft 18 kts 11°
2026-05-07 16:37 -7.37774 112.79811 9 ft 17 kts
2026-05-07 16:37 -7.37727 112.79757 9 ft 12 kts 278°
2026-05-07 16:37 -7.37715 112.79683 9 ft 11 kts 279°
2026-05-07 16:37 -7.37702 112.79599 9 ft 13 kts 279°
2026-05-07 16:38 -7.37680 112.79516 10 ft 9 kts 321°
2026-05-07 16:38 -7.37651 112.79522 9 ft 7 kts 24°
2026-05-07 16:38 -7.37603 112.79533 11 ft 2 kts
2026-05-07 16:38 -7.37597 112.79534 10 ft 0 kts